Location: Te Maire Creek
(41.1333°S, 175.9167°E)
Time: 16:03:21
(UTC+00:00)

Cosmos 1814 Rocket - Pass Details

Date: 19 May 2024
Orbit: 743 x 784 km, 74.1° (Epoch: 12 June)

Event Time Altitude Azimuth Distance (km) Brightness Sun altitude
Rises 17:12:15 0° 347° (NNW) 3,260 7.2 -24.2°
Reaches altitude 10° 17:14:37 10° 349° (NNW) 2,343 6.5 -23.8°
Maximum altitude 17:19:56 76° 73° (ENE) 823 4.2 -22.8°
Drops below altitude 10° 17:25:21 10° 157° (SSE) 2,375 6.7 -21.8°
Sets 17:27:46 0° 158° (SSE) 3,308 7.5 -21.3°
